Location: Nelson
(41.2830°S, 173.2830°E)
Time: 20:19:40
(UTC+13:00)

Cosmos 1844 Rocket - Pass Details

Date: 24 January 2019
Orbit: 824 x 845 km, 71.0° (Epoch: 17 February)

Event Time Altitude Azimuth Distance (km) Brightness Sun altitude
Rises 22:52:27 0° 199° (SSW) 3,408 7.1 -18.3°
Reaches altitude 10° 22:55:02 10° 192° (SSW) 2,471 6.0 -18.6°
Maximum altitude 23:00:25 43° 120° (ESE) 1,172 3.3 -19.2°
Enters shadow 23:02:34 30° 72° (ENE) 1,459 3.5 -19.5°
